Location: Champs
(48.8539°N, 2.6040°E)
Time: 04:45:53
(UTC+00:00)

Cosmos 1544 Rocket - Pass Details

Date: 26 October 2021
Orbit: 603 x 632 km, 82.5° (Epoch: 04 December)

Event Time Altitude Azimuth Distance (km) Brightness Sun altitude
Rises 05:19:20 0° 343° (NNW) 2,911 6.8 -11.7°
Reaches altitude 10° 05:21:41 10° 336° (NNW) 1,995 5.9 -11.3°
Maximum altitude 05:25:45 38° 269° (W) 949 4.0 -10.7°
Drops below altitude 10° 05:29:47 10° 201° (SSW) 1,963 6.0 -10.0°
Sets 05:32:05 0° 193° (SSW) 2,858 6.9 -9.6°
